Temperature
13 14 14 14 13 12 13 14 15 17 18 19 20 20 18 18 19 19 18 18 18 18 17 17 18 18 17 17 17 17 17 17 17 17 17 17 17 17 17 16 16 16 16 16 16 16 16 16 16
13 13 14 14 12 12 13 13 15 17 19 20 19 19 18 17 18 18 17 18 18 18 17 17 17 17 17 17 17 17 17 17 17 17 17 17 17 16 16 16 16 16 16 16 16 16 16 16 16
13 13 13 11 12 12 14 15 15 17 19 19 18 18 18 17 18 17 18 17 17 17 17 17 17 17 17 17 17 17 17 17 17 17 16 16 16 16 16 16 16 16 16 16 16 16 15 15 15
13 13 13 11 12 13 14 16 16 17 18 19 18 16 17 17 17 17 17 17 17 17 17 17 17 17 17 17 17 17 17 17 17 16 16 16 16 16 16 16 16 16 16 16 16 16 15 15 15
12 12 11 11 12 13 14 16 17 17 17 18 17 15 16 17 17 17 17 17 17 17 16 16 16 16 16 16 16 16 16 16 16 16 16 16 16 16 16 16 16 16 16 16 16 15 15 15 15
12 11 11 11 12 13 14 16 17 16 16 17 16 14 15 16 16 16 16 16 16 16 16 16 16 16 16 16 16 16 16 16 16 16 16 16 16 16 16 16 16 16 16 16 15 15 15 15 15
11 10 11 11 12 13 15 17 16 15 16 17 17 14 15 15 16 16 16 16 16 16 16 15 15 15 16 16 16 16 16 16 16 16 16 16 16 16 15 15 15 15 15 15 15 15 15 15 15
11 10 11 11 12 13 15 17 17 17 16 17 17 14 14 15 15 15 15 15 15 15 15 15 15 15 15 16 16 16 16 16 16 16 16 16 15 15 15 15 15 15 15 15 15 15 15 15 14
11 10 10 11 12 14 15 16 17 17 17 16 16 16 16 15 15 15 15 14 14 14 15 15 15 15 15 15 15 15 15 15 15 15 15 15 15 15 15 15 15 15 15 15 15 15 15 14 14
11 10 11 12 13 14 15 15 16 15 14 14 15 15 15 15 14 14 14 14 14 14 14 14 15 15 15 15 15 15 15 15 15 15 15 15 15 15 15 15 15 15 15 15 15 15 14 14 14
10 10 11 13 14 14 14 15 15 14 13 14 14 14 14 14 14 14 14 14 14 14 14 14 14 14 15 15 15 15 15 14 14 15 15 15 15 15 15 15 14 14 14 14 14 14 14 14 14
10 10 12 12 13 14 14 14 14 14 14 15 15 15 14 13 14 14 14 14 14 14 14 14 14 14 14 14 14 14 14 14 14 14 14 15 14 14 14 14 14 14 14 14 14 14 14 13 13
9 10 12 12 13 13 13 13 13 13 14 15 14 14 14 13 13 14 14 14 14 14 14 14 14 14 14 14 14 14 14 14 14 14 14 14 14 14 14 14 14 14 14 14 13 13 13 13 13
10 10 11 12 12 13 12 12 13 13 13 13 13 13 13 13 13 13 13 13 13 13 13 13 13 13 13 13 14 14 14 14 14 14 14 14 14 14 14 14 13 13 13 13 13 13 13 13 12
10 9 10 11 11 12 12 11 11 12 12 12 12 12 12 13 13 13 13 13 13 13 13 13 13 13 13 13 13 13 13 13 14 14 13 14 13 13 13 13 13 13 13 13 12 12 12 12 12
9 8 8 10 11 11 11 10 11 12 12 11 11 11 11 12 12 12 12 13 13 13 13 13 13 13 13 13 13 13 13 13 13 13 13 13 13 13 13 13 13 13 12 12 12 12 12 11 11
7 7 8 9 10 10 10 9 10 11 11 10 10 11 11 11 11 12 12 12 12 12 12 12 12 12 12 12 12 13 13 13 13 13 13 13 13 13 13 12 12 12 12 12 12 11 11 11 11
6 6 7 8 9 9 9 9 9 10 10 10 10 10 10 11 11 11 11 11 12 12 12 12 12 12 12 12 12 12 12 12 12 12 12 12 12 12 12 12 12 12 11 11 11 11 11 11 10
7 7 7 8 9 9 8 9 9 9 9 9 9 9 10 10 11 11 11 11 11 11 11 11 12 12 12 12 12 12 12 12 12 12 12 12 12 12 12 11 11 11 11 11 11 10 10 10 10
7 7 7 8 9 9 8 8 8 8 9 9 9 9 9 10 10 10 10 10 11 11 11 11 11 11 11 11 11 12 12 12 12 11 11 11 11 11 11 11 11 11 11 10 10 10 10 10 9
7 6 7 7 8 8 8 8 8 8 9 9 9 9 9 9 9 9 10 10 10 10 10 11 11 11 11 11 11 11 11 11 11 11 11 11 11 11 11 11 10 10 10 10 10 10 9 9 9
6 7 7 7 7 6 7 6 7 7 8 8 8 8 8 9 9 9 9 9 10 10 10 10 10 10 10 11 11 11 11 11 11 11 11 11 10 10 10 10 10 10 10 10 9 9 9 9 9
6 7 7 7 6 6 6 6 6 7 7 7 7 8 8 8 8 8 9 9 9 9 9 10 10 10 10 10 10 10 10 11 10 10 10 10 10 10 10 10 10 10 9 9 9 9 9 9 8
6 6 6 5 5 5 6 5 6 6 7 7 7 7 8 8 8 8 8 8 9 9 9 9 9 9 9 10 10 10 10 10 10 10 10 10 10 10 10 9 9 9 9 9 9 9 8 8 8
5 4 4 4 4 5 6 5 5 6 7 7 7 7 7 7 7 7 8 8 8 8 8 9 9 9 9 9 9 9 9 10 10 10 10 10 10 10 9 9 9 9 9 9 9 8 8 8 8
5 4 4 4 4 5 5 5 5 6 6 7 7 7 7 7 7 7 7 7 8 8 8 8 8 8 8 9 9 9 9 9 9 9 9 9 9 9 9 9 9 9 9 8 8 8 8 8 7
4 4 4 4 3 4 4 4 5 6 6 6 6 6 6 6 6 6 7 7 7 7 8 8 8 8 8 8 8 9 9 9 9 9 9 9 9 9 9 8 8 8 8 8 8 8 7 7 7
5 4 3 3 4 4 4 4 4 5 5 5 5 5 6 6 6 6 6 6 7 7 7 7 7 7 8 8 8 8 8 8 8 8 8 8 8 8 8 8 8 8 8 7 7 7 7 7 7
4 4 3 3 3 3 4 4 5 5 5 5 5 5 5 5 6 5 5 6 6 6 6 6 7 7 7 7 7 7 8 8 8 8 8 8 8 8 8 8 7 7 7 7 7 7 7 6 6
3 3 3 3 2 2 3 4 5 4 4 4 5 5 5 5 5 5 5 5 5 6 6 6 6 6 6 7 7 7 7 7 7 7 7 7 7 7 7 7 7 7 7 7 6 6 6 6 6
Wind_Speed
4 3 2 3 3 1 6 6 4 3 3 3 2 4 6 4 4 4 3 9 12 14 15 18 18 18 17 17 16 16 15 15 15 15 15 14 14 14 13 13 12 12 11 10 10 10 10 10 10
1 1 3 3 4 5 7 7 7 7 5 3 1 2 3 1 1 6 5 10 14 15 16 16 18 18 18 17 17 16 15 15 15 15 14 14 13 13 12 12 12 11 10 10 9 9 9 9 9
1 1 3 3 5 8 7 6 9 6 5 3 1 1 3 3 3 4 6 13 13 13 15 17 18 18 18 17 17 17 16 16 15 15 14 14 14 13 13 12 11 11 11 10 9 9 8 8 8
1 2 2 3 9 8 7 5 4 4 3 1 3 2 2 0 3 5 11 14 13 11 13 17 19 18 18 18 17 17 16 16 16 15 14 14 13 13 13 12 11 11 10 10 9 9 9 8 8
2 3 3 5 9 7 7 6 3 4 3 1 3 3 1 4 5 10 13 14 14 11 12 16 18 18 18 18 17 16 16 16 15 15 14 14 13 13 12 11 11 11 10 10 9 9 8 8 8
2 2 4 8 8 7 7 6 3 4 3 1 3 3 1 1 8 10 12 12 13 12 12 15 17 17 17 17 17 16 15 15 15 15 14 14 13 13 12 11 11 10 10 9 9 8 8 7 7
3 4 6 7 7 7 8 5 5 5 4 4 5 5 2 2 6 10 11 11 11 11 11 11 14 16 16 16 16 15 15 15 14 14 14 13 13 12 12 11 10 9 9 9 8 7 7 7 7
4 3 4 5 7 8 5 4 4 6 5 2 4 7 6 6 7 11 11 10 9 9 9 9 11 13 13 14 15 15 14 14 14 13 13 13 12 11 11 10 10 9 9 8 7 7 7 7 7
3 4 8 7 7 6 3 3 4 2 3 1 1 3 6 11 12 12 11 9 9 9 7 8 9 11 12 12 13 13 13 13 13 12 12 11 10 10 9 9 9 8 8 7 7 7 7 7 7
5 7 10 6 4 3 3 3 4 1 1 1 2 3 8 12 14 13 13 12 10 10 8 7 7 9 10 10 10 10 10 11 11 11 11 11 10 9 9 9 8 8 8 7 7 7 7 7 7
6 8 6 5 5 4 3 3 1 4 3 5 7 9 10 10 11 13 12 12 11 10 9 7 7 8 8 8 8 8 8 9 9 10 11 11 10 9 8 7 7 7 7 6 6 7 7 7 6
4 5 5 4 4 3 3 2 1 2 5 5 8 13 12 11 11 12 12 11 10 10 9 8 7 7 7 8 7 7 7 7 7 9 10 10 7 6 6 5 5 5 5 5 6 5 6 7 7
7 4 5 5 5 4 2 3 2 3 2 3 6 9 10 9 8 8 9 10 10 10 9 9 8 7 7 7 6 6 6 6 8 9 9 10 7 5 5 4 5 5 5 5 4 5 5 5 5
4 4 5 5 6 4 2 4 2 4 3 5 6 7 8 8 8 7 8 9 9 9 9 8 8 8 8 5 5 6 7 7 8 8 8 10 8 6 5 4 4 4 4 5 5 4 4 3 4
2 3 5 6 5 3 1 4 5 5 4 5 6 6 6 6 7 8 9 9 9 9 8 9 9 8 8 6 6 6 7 8 7 7 9 9 8 8 6 4 3 3 4 5 5 5 5 3 3
1 2 5 6 6 4 4 7 5 4 5 5 5 4 5 5 6 6 7 7 8 8 8 8 8 8 8 6 6 6 7 7 6 7 8 8 9 9 7 4 3 4 5 5 4 3 3 3 2
2 5 7 5 6 4 4 6 4 4 6 6 5 4 4 4 4 4 5 6 7 8 8 7 7 8 7 7 6 6 7 6 6 7 7 7 9 9 7 5 4 5 5 4 3 3 2 2 2
5 5 6 6 4 4 4 6 4 3 5 6 5 4 3 4 5 5 5 5 6 6 7 7 7 6 7 6 5 4 4 3 5 5 6 7 8 9 8 5 5 5 4 3 3 3 3 2 1
4 4 5 6 4 4 6 6 5 2 3 5 4 4 3 4 3 3 4 4 5 6 6 7 7 6 6 5 4 4 4 3 3 3 6 7 8 8 7 5 5 5 4 3 3 3 3 2 1
5 5 5 3 2 3 5 7 5 3 4 5 6 6 5 3 2 3 3 4 5 6 6 6 6 6 6 5 4 3 4 3 3 3 4 6 7 7 7 6 4 4 4 4 3 3 2 1 2
7 7 6 4 2 1 2 4 5 4 2 3 4 5 5 6 6 5 4 3 4 5 6 6 6 6 5 5 4 4 3 3 2 2 2 3 6 7 7 7 6 5 4 4 3 3 3 2 1
7 7 6 5 3 3 4 4 5 4 3 4 4 4 4 4 5 5 4 4 4 4 4 5 5 6 6 6 6 7 6 5 5 4 4 3 5 6 7 7 6 5 4 4 3 3 3 3 2
5 3 3 4 4 2 2 3 5 3 5 6 6 5 4 4 6 5 5 5 4 3 4 4 4 5 5 5 7 7 5 3 3 4 4 4 3 5 6 6 6 5 4 4 3 3 3 3 3
1 2 3 2 2 4 6 5 4 5 9 6 5 5 4 4 4 4 3 3 3 3 3 4 4 4 5 5 6 6 6 6 6 5 5 4 3 3 4 5 5 5 4 4 4 3 3 3 3
2 4 1 0 2 5 5 5 6 5 6 7 8 6 4 3 4 4 4 4 3 3 3 4 4 4 4 5 5 6 6 7 8 7 7 6 4 3 4 4 5 4 4 4 4 3 3 3 3
5 6 4 4 5 2 2 5 4 4 3 3 5 5 3 3 3 4 4 5 4 4 3 3 4 4 4 5 4 5 5 5 4 5 5 6 5 4 5 5 5 5 5 5 4 3 2 2 3
4 4 3 3 1 1 3 3 4 2 1 2 3 3 3 3 3 4 3 4 4 4 4 4 4 4 4 4 4 4 5 5 5 4 4 4 4 4 5 5 4 5 5 4 4 3 3 3 2
2 3 3 3 3 2 3 3 3 3 3 2 3 4 3 3 3 3 3 3 3 3 3 3 3 3 3 4 4 4 4 5 5 4 5 4 5 4 5 5 4 4 4 4 3 3 2 3 2
1 2 2 2 3 3 3 4 2 4 4 5 5 4 4 3 3 3 3 3 2 2 2 2 2 2 2 3 3 3 3 4 4 4 5 5 5 5 5 5 5 4 4 4 4 3 3 3 2
1 3 3 3 2 2 2 4 4 1 1 3 3 2 2 2 3 3 2 2 2 2 2 2 1 2 2 3 3 3 3 3 4 4 4 5 5 5 5 5 5 4 4 4 4 4 3 3 3
Wind_Direction
287 337 73 67 79 122 225 234 226 226 222 219 196 139 141 152 162 173 140 143 136 145 147 146 145 143 140 137 135 131 129 127 124 124 123 121 119 117 115 112 109 106 103 100 96 91 88 88 85
349 54 74 81 143 200 239 233 229 227 212 191 154 118 98 110 109 118 130 144 140 143 143 144 143 142 140 137 135 132 129 127 126 125 124 123 122 120 117 114 111 108 104 101 98 92 88 89 86
344 149 117 126 184 202 219 223 223 242 243 205 171 56 125 147 140 144 148 139 134 137 142 143 143 142 139 137 135 132 130 127 124 123 123 122 120 118 115 114 111 108 104 101 96 92 88 92 88
98 89 93 177 222 226 218 224 218 228 257 177 144 69 29 354 166 149 137 134 132 134 139 143 144 142 140 137 135 133 132 129 126 124 124 123 122 119 115 112 110 108 105 100 95 93 88 88 88
86 123 168 223 230 237 236 246 239 220 217 181 132 118 340 332 111 124 133 135 136 137 138 142 143 142 139 137 136 134 133 132 129 127 125 124 123 120 116 113 110 107 104 102 97 94 90 86 83
134 133 181 218 229 239 247 237 246 239 233 190 115 116 200 177 118 129 132 135 136 138 135 139 142 140 139 137 136 136 135 135 133 129 127 125 122 120 118 114 111 107 104 101 100 95 92 87 81
167 169 200 206 222 238 241 228 214 223 227 214 148 128 160 175 140 133 129 128 129 132 132 132 136 137 137 136 135 135 135 134 133 131 128 125 123 121 119 115 111 108 106 101 100 97 91 85 76
170 169 210 207 212 234 235 220 215 202 218 177 133 149 178 189 146 129 124 124 125 127 130 130 131 131 131 132 133 133 135 135 133 131 127 124 121 120 118 116 113 110 107 104 100 98 90 81 72
158 194 214 207 203 231 232 219 249 217 144 77 108 179 173 148 134 126 125 126 130 133 133 131 130 130 130 131 133 131 131 131 131 128 125 121 116 113 112 114 113 110 105 100 95 89 82 72 64
182 210 219 215 208 234 265 224 217 130 118 60 55 80 125 141 142 143 148 151 151 151 148 141 136 136 133 131 128 126 126 126 126 124 123 120 116 112 110 108 106 104 98 91 83 76 66 59 55
193 213 221 249 262 277 297 291 234 143 191 194 165 153 149 151 154 155 159 161 160 157 153 150 145 140 137 132 132 127 126 124 122 125 124 120 112 107 101 95 91 91 86 74 71 68 63 56 53
217 239 229 253 290 293 272 293 311 187 209 193 165 156 155 160 166 167 165 164 159 157 157 155 149 142 143 139 135 134 131 127 125 127 129 123 114 107 104 96 90 84 80 73 72 69 66 60 56
235 239 240 262 282 281 291 280 253 264 240 136 140 152 158 165 171 170 164 160 159 160 159 157 152 148 145 139 140 138 136 135 134 129 130 130 125 126 115 104 93 84 82 81 77 73 68 60 54
230 243 249 251 262 276 265 276 229 249 131 131 149 166 170 169 167 158 156 159 163 164 163 158 156 150 143 143 144 143 140 137 133 131 133 133 129 128 123 112 102 86 85 88 90 87 81 69 60
234 240 264 248 238 244 213 280 243 229 151 159 175 178 180 177 165 165 168 164 164 163 160 159 158 151 147 146 146 142 140 136 133 135 136 134 131 130 125 121 114 98 93 91 85 78 71 64 54
194 209 238 245 215 217 175 248 256 213 165 176 185 179 180 180 175 170 162 158 155 153 155 162 159 153 151 147 144 141 138 135 137 138 138 138 134 132 124 121 120 106 96 92 96 86 74 57 48
184 213 221 245 210 179 180 243 254 212 172 181 183 180 184 174 167 165 160 157 155 156 155 155 151 152 150 142 136 135 133 134 138 139 139 141 137 134 128 124 120 111 97 91 97 81 86 75 44
206 209 210 218 217 179 206 243 261 206 178 187 185 182 191 183 187 170 158 156 153 152 150 148 143 145 139 132 125 120 119 125 132 141 147 146 142 136 128 122 119 114 105 95 95 96 75 82 67
195 200 222 232 234 197 219 239 247 219 193 190 187 183 194 204 186 149 141 142 141 138 142 148 146 147 143 146 149 149 156 156 158 152 152 148 146 141 133 127 121 119 123 125 121 111 93 56 52
214 214 230 242 228 207 217 239 236 227 212 195 186 188 198 191 144 142 136 135 144 151 154 155 158 159 159 165 168 165 153 159 161 154 148 151 149 149 146 138 136 132 129 121 123 120 110 62 48
233 212 216 234 269 221 164 254 237 243 219 203 197 187 188 180 179 172 166 163 155 162 168 171 170 165 163 154 135 126 106 106 130 157 171 164 158 153 149 146 141 140 140 145 152 145 137 145 18
234 224 223 222 179 219 180 225 238 219 220 210 210 196 195 187 177 170 175 175 174 177 171 167 167 164 161 154 158 164 164 170 184 176 176 167 158 155 157 152 147 146 143 147 157 149 152 145 151
229 244 233 219 188 186 181 188 258 203 215 217 212 201 195 186 175 171 181 183 171 162 164 162 161 161 160 162 169 169 166 166 157 153 157 163 163 161 160 156 148 148 147 152 147 144 146 150 159
212 46 36 52 135 214 203 183 250 215 213 209 203 202 193 185 175 173 171 150 140 138 151 153 158 166 166 165 170 169 167 162 158 163 172 175 171 164 164 159 152 150 148 153 150 149 145 142 145
118 117 94 19 216 233 189 184 243 241 218 202 196 199 197 177 173 165 154 149 145 148 159 163 162 170 171 168 176 179 177 174 176 178 180 175 174 178 182 167 159 154 154 149 143 147 154 150 147
199 166 170 187 204 258 176 212 253 266 221 177 173 176 175 170 172 170 168 166 166 167 167 165 176 181 180 178 183 182 176 175 179 183 181 181 183 184 172 166 162 156 152 151 145 146 158 148 153
172 198 195 140 126 143 230 272 297 328 59 132 151 153 175 192 183 173 161 161 166 174 179 178 184 185 188 188 180 176 175 172 175 179 176 176 172 169 158 157 157 158 157 154 148 155 163 154 161
165 152 114 137 160 208 237 238 240 243 213 184 182 193 202 198 183 174 166 168 170 173 176 167 170 183 184 182 182 180 179 175 173 171 173 175 172 165 159 160 159 158 156 152 147 154 160 154 164
135 146 154 153 161 169 202 254 248 217 197 188 202 208 197 197 188 179 177 170 160 135 131 150 161 159 172 177 179 170 171 167 168 173 178 178 174 166 167 167 165 163 165 163 161 169 164 164 171
163 175 155 158 206 179 179 269 325 296 225 194 201 213 189 177 172 168 160 146 137 136 138 144 165 181 188 177 164 163 156 153 161 172 175 169 171 170 169 165 165 171 171 170 174 177 172 176 186
Height
1502 1503 1505 1508 1511 1517 1515 1507 1499 1496 1495 1493 1493 1493 1494 1497 1500 1506 1502 1501 1504 1507 1510 1513 1515 1517 1519 1521 1523 1524 1526 1527 1529 1530 1531 1532 1533 1534 1535 1535 1536 1536 1537 1537 1537 1537 1537 1537 1537
1501 1503 1506 1507 1512 1519 1512 1502 1497 1492 1491 1492 1492 1492 1493 1495 1496 1498 1499 1501 1504 1507 1509 1512 1515 1517 1519 1521 1522 1524 1526 1527 1529 1530 1531 1532 1533 1534 1535 1535 1536 1537 1537 1537 1538 1538 1538 1538 1538
1500 1502 1504 1506 1509 1510 1504 1495 1492 1489 1490 1491 1491 1492 1493 1495 1496 1497 1499 1501 1504 1507 1509 1512 1514 1516 1518 1520 1522 1524 1525 1527 1528 1530 1531 1532 1533 1534 1535 1535 1536 1537 1537 1537 1538 1538 1538 1538 1538
1499 1502 1503 1506 1504 1499 1494 1489 1487 1488 1488 1489 1490 1493 1494 1496 1496 1497 1498 1501 1504 1507 1509 1511 1514 1516 1518 1520 1522 1523 1525 1527 1528 1529 1531 1532 1533 1534 1535 1535 1536 1536 1537 1537 1537 1538 1538 1538 1538
1497 1498 1502 1503 1499 1494 1489 1487 1487 1487 1487 1488 1489 1492 1494 1495 1496 1497 1499 1501 1504 1506 1509 1511 1513 1515 1517 1519 1521 1523 1525 1526 1528 1529 1530 1531 1532 1534 1534 1535 1536 1536 1537 1537 1537 1537 1538 1538 1538
1496 1496 1502 1501 1496 1490 1486 1486 1487 1487 1486 1487 1488 1491 1493 1495 1495 1497 1499 1501 1504 1506 1508 1511 1513 1515 1517 1519 1521 1523 1524 1526 1527 1528 1530 1531 1532 1533 1534 1535 1535 1536 1536 1537 1537 1537 1537 1537 1537
1494 1495 1496 1495 1493 1489 1484 1484 1485 1485 1485 1485 1486 1489 1492 1494 1495 1497 1499 1501 1503 1506 1508 1510 1512 1514 1516 1518 1520 1522 1524 1525 1526 1528 1529 1530 1531 1532 1533 1534 1535 1535 1536 1536 1536 1537 1537 1537 1537
1490 1493 1492 1491 1489 1486 1481 1481 1482 1482 1482 1484 1485 1486 1489 1492 1494 1496 1499 1501 1503 1505 1507 1509 1511 1513 1515 1517 1519 1521 1523 1524 1526 1527 1528 1529 1530 1531 1532 1533 1534 1534 1535 1535 1535 1536 1536 1536 1536
1488 1492 1490 1486 1485 1481 1478 1479 1480 1480 1480 1482 1483 1484 1485 1489 1492 1494 1497 1499 1502 1504 1506 1508 1510 1512 1514 1516 1518 1520 1522 1523 1525 1526 1527 1528 1529 1530 1531 1532 1533 1533 1534 1534 1534 1535 1535 1535 1535
1485 1487 1482 1480 1479 1478 1477 1477 1478 1479 1478 1480 1481 1483 1485 1487 1489 1491 1493 1496 1498 1501 1504 1506 1509 1511 1513 1515 1517 1519 1520 1522 1523 1525 1526 1527 1528 1529 1530 1531 1531 1532 1532 1533 1533 1534 1534 1534 1534
1480 1480 1478 1478 1477 1477 1476 1476 1476 1477 1478 1477 1478 1480 1483 1485 1487 1489 1492 1494 1497 1499 1502 1505 1507 1509 1511 1513 1515 1517 1519 1521 1522 1523 1525 1526 1527 1528 1529 1529 1530 1531 1531 1532 1532 1532 1533 1533 1533
1478 1476 1477 1477 1477 1476 1476 1475 1475 1475 1475 1476 1477 1479 1481 1483 1485 1488 1490 1493 1495 1498 1500 1503 1505 1508 1510 1512 1514 1515 1517 1519 1520 1522 1523 1524 1525 1526 1527 1528 1529 1529 1530 1530 1531 1531 1532 1532 1532
1476 1475 1475 1476 1476 1475 1475 1475 1474 1474 1474 1475 1476 1478 1479 1481 1484 1486 1489 1491 1493 1496 1498 1501 1503 1506 1508 1510 1512 1514 1516 1517 1519 1520 1521 1523 1524 1525 1526 1527 1527 1528 1528 1529 1530 1530 1530 1531 1531
1473 1474 1474 1475 1474 1474 1474 1474 1474 1473 1474 1475 1475 1477 1479 1480 1482 1484 1487 1489 1491 1493 1496 1499 1502 1504 1506 1508 1510 1512 1514 1516 1517 1519 1520 1521 1522 1523 1524 1525 1526 1527 1527 1528 1528 1529 1529 1529 1530
1473 1474 1474 1472 1473 1473 1474 1475 1473 1472 1473 1474 1475 1476 1478 1479 1481 1482 1484 1487 1489 1491 1494 1497 1499 1502 1504 1506 1508 1510 1512 1514 1515 1517 1518 1520 1520 1521 1522 1523 1524 1525 1526 1527 1527 1527 1528 1528 1528
1473 1475 1476 1471 1471 1471 1476 1477 1471 1471 1472 1473 1474 1475 1477 1478 1480 1481 1483 1485 1487 1489 1492 1495 1497 1500 1502 1504 1507 1508 1510 1512 1513 1515 1517 1518 1519 1520 1521 1522 1523 1524 1525 1525 1526 1526 1526 1527 1527
1475 1477 1475 1472 1468 1470 1474 1475 1471 1471 1471 1472 1473 1474 1475 1476 1478 1480 1482 1484 1485 1487 1490 1492 1495 1497 1500 1502 1504 1506 1508 1510 1512 1513 1515 1516 1517 1518 1519 1520 1521 1522 1523 1524 1524 1524 1525 1525 1525
1475 1476 1474 1472 1468 1469 1473 1473 1470 1470 1470 1470 1471 1473 1473 1474 1476 1478 1480 1482 1484 1485 1488 1490 1492 1495 1497 1500 1502 1503 1506 1508 1510 1511 1513 1514 1515 1516 1517 1518 1520 1520 1521 1522 1523 1523 1523 1524 1524
1471 1473 1473 1470 1466 1469 1471 1471 1469 1469 1469 1470 1470 1471 1472 1474 1475 1477 1478 1480 1482 1483 1485 1487 1490 1492 1495 1497 1498 1500 1502 1505 1507 1509 1511 1512 1513 1514 1515 1516 1518 1519 1520 1520 1521 1521 1521 1522 1522
1470 1472 1473 1469 1466 1467 1470 1470 1468 1468 1468 1468 1469 1470 1471 1472 1473 1475 1476 1478 1479 1480 1483 1485 1488 1490 1492 1495 1497 1499 1501 1503 1505 1507 1509 1510 1511 1512 1513 1515 1516 1517 1518 1519 1519 1519 1519 1520 1520
1468 1470 1471 1469 1466 1466 1470 1472 1469 1467 1466 1467 1467 1468 1469 1470 1470 1472 1474 1475 1477 1478 1480 1483 1485 1487 1490 1492 1495 1497 1499 1500 1503 1504 1506 1508 1510 1510 1512 1513 1514 1516 1516 1517 1518 1518 1518 1518 1519
1469 1465 1466 1467 1470 1474 1472 1478 1469 1467 1466 1466 1466 1467 1467 1468 1469 1470 1472 1473 1475 1477 1479 1481 1483 1485 1487 1490 1492 1494 1495 1496 1499 1502 1504 1506 1507 1508 1510 1511 1512 1513 1514 1515 1516 1516 1517 1517 1517
1466 1463 1464 1465 1470 1474 1473 1478 1471 1466 1466 1464 1464 1464 1465 1466 1467 1468 1470 1471 1473 1475 1477 1479 1481 1483 1485 1487 1489 1491 1493 1495 1497 1499 1501 1503 1505 1506 1508 1509 1510 1511 1512 1513 1514 1514 1515 1515 1515
1464 1465 1467 1469 1472 1476 1471 1475 1472 1466 1461 1461 1462 1463 1463 1464 1465 1467 1468 1470 1472 1474 1475 1477 1478 1480 1482 1484 1487 1489 1491 1493 1494 1496 1499 1501 1502 1504 1505 1506 1507 1508 1509 1510 1511 1512 1513 1513 1513
1466 1472 1477 1478 1479 1474 1467 1471 1468 1460 1457 1458 1459 1460 1462 1462 1463 1464 1466 1467 1469 1471 1473 1474 1476 1478 1480 1482 1484 1486 1489 1491 1492 1494 1496 1498 1500 1501 1503 1504 1505 1506 1507 1508 1509 1510 1511 1511 1511
1467 1470 1477 1479 1477 1473 1469 1470 1465 1457 1455 1455 1457 1459 1460 1461 1462 1462 1463 1465 1466 1468 1470 1472 1474 1475 1477 1479 1481 1484 1486 1488 1490 1492 1494 1496 1498 1499 1501 1502 1503 1504 1505 1506 1507 1508 1508 1508 1509
1466 1470 1470 1475 1477 1478 1472 1468 1462 1456 1456 1456 1457 1458 1459 1459 1460 1461 1462 1463 1465 1467 1468 1470 1472 1473 1475 1477 1479 1481 1483 1485 1487 1490 1492 1494 1495 1497 1498 1500 1500 1501 1502 1504 1504 1505 1505 1506 1506
1464 1466 1472 1475 1477 1476 1471 1470 1466 1459 1457 1456 1456 1457 1457 1458 1459 1460 1461 1462 1463 1465 1467 1469 1470 1471 1473 1474 1476 1479 1481 1483 1485 1487 1489 1491 1493 1495 1496 1497 1498 1499 1500 1501 1502 1503 1503 1504 1504
1467 1469 1470 1473 1474 1476 1475 1470 1458 1456 1455 1455 1455 1455 1456 1457 1457 1458 1460 1461 1462 1464 1465 1466 1468 1469 1471 1472 1474 1476 1478 1480 1482 1484 1487 1489 1490 1492 1493 1495 1496 1497 1498 1498 1499 1500 1500 1501 1501
1466 1467 1470 1473 1477 1475 1475 1471 1456 1455 1454 1453 1454 1455 1456 1456 1457 1458 1459 1460 1461 1462 1463 1464 1465 1467 1468 1470 1472 1474 1476 1478 1480 1482 1484 1486 1487 1489 1491 1492 1493 1494 1496 1496 1497 1497 1498 1498 1498